| time (UTC) | temp F | wind direction | speed MPH | gust MPH | rain 1hr in | rain 24hr in | rain mn in | humidity % | barometer mb |
| 20260508033025 | 45 | 284 | 1.0 | 5.0 | 0.00 | 0.00 | 0.00 | 76 | 1011.0 |
| 20260508032527 | 45 | 277 | 3.0 | 8.0 | 0.00 | 0.00 | 0.00 | 75 | 1011.0 |
| 20260508032020 | 45 | 274 | 1.0 | 8.0 | 0.00 | 0.00 | 0.00 | 75 | 1010.9 |
| 20260508031521 | 45 | 316 | 2.0 | 6.0 | 0.00 | 0.00 | 0.00 | 75 | 1010.9 |
| 20260508031024 | 45 | 278 | 1.0 | 4.0 | 0.00 | 0.00 | 0.00 | 76 | 1011.0 |
| 20260508030518 | 45 | 275 | 2.0 | 4.0 | 0.00 | 0.00 | 0.00 | 75 | 1011.1 |
| 20260508030044 | 44 | 300 | 1.0 | 5.0 | 0.00 | 0.00 | 0.00 | 75 | 1011.1 |
| 20260508025519 | 44 | 287 | 2.0 | 6.0 | 0.00 | 0.00 | 0.00 | 75 | 1011.0 |
| 20260508025049 | 44 | 279 | 1.0 | 6.0 | 0.00 | 0.00 | 0.00 | 75 | 1011.0 |
| 20260508024529 | 43 | 284 | 0.0 | 4.0 | 0.00 | 0.00 | 0.00 | 75 | 1011.1 |
| 20260508024058 | 43 | 273 | 2.0 | 5.0 | 0.00 | 0.00 | 0.00 | 75 | 1011.1 |
| 20260508023530 | 43 | 287 | 1.0 | 4.0 | 0.00 | 0.00 | 0.00 | 74 | 1011.0 |
| 20260508023026 | 44 | 328 | 0.0 | 0.0 | 0.00 | 0.00 | 0.00 | 73 | 1010.9 |
| 20260508022555 | 44 | 328 | 0.0 | 0.0 | 0.00 | 0.00 | 0.00 | 73 | 1010.7 |
| 20260508022048 | 44 | 328 | 0.0 | 0.0 | 0.00 | 0.00 | 0.00 | 73 | 1010.7 |
| 20260508021517 | 44 | 328 | 0.0 | 0.0 | 0.00 | 0.00 | 0.00 | 73 | 1010.6 |
| 20260508021022 | 44 | 328 | 0.0 | 0.0 | 0.00 | 0.00 | 0.00 | 72 | 1010.7 |
| 20260508020540 | 44 | 328 | 0.0 | 0.0 | 0.00 | 0.00 | 0.00 | 71 | 1010.6 |
| 20260508020018 | 44 | 328 | 0.0 | 0.0 | 0.00 | 0.00 | 0.00 | 69 | 1010.6 |
| 20260508015516 | 45 | 328 | 0.0 | 0.0 | 0.00 | 0.00 | 0.00 | 68 | 1010.4 |
| 20260508015034 | 45 | 328 | 0.0 | 0.0 | 0.00 | 0.00 | 0.00 | 68 | 1010.4 |
| 20260508014548 | 45 | 328 | 0.0 | 0.0 | 0.00 | 0.00 | 0.00 | 67 | 1010.4 |
| 20260508014046 | 45 | 328 | 0.0 | 0.0 | 0.00 | 0.00 | 0.00 | 67 | 1010.3 |
| 20260508013532 | 45 | 328 | 0.0 | 0.0 | 0.00 | 0.00 | 0.00 | 67 | 1010.3 |
| 20260508013023 | 45 | 328 | 0.0 | 0.0 | 0.00 | 0.00 | 0.00 | 67 | 1010.4 |
| 20260508012518 | 45 | 328 | 0.0 | 0.0 | 0.00 | 0.00 | 0.00 | 65 | 1010.3 |
| 20260508012029 | 45 | 328 | 0.0 | 0.0 | 0.00 | 0.00 | 0.00 | 65 | 1010.4 |
| 20260508011542 | 46 | 328 | 0.0 | 0.0 | 0.00 | 0.00 | 0.00 | 65 | 1010.4 |
| 20260508011020 | 46 | 328 | 0.0 | 0.0 | 0.00 | 0.00 | 0.00 | 64 | 1010.4 |
| 20260508010549 | 46 | 328 | 0.0 | 0.0 | 0.00 | 0.00 | 0.00 | 64 | 1010.4 |
| 20260508010030 | 46 | 328 | 0.0 | 0.0 | 0.00 | 0.00 | 0.00 | 63 | 1010.3 |
| 20260508005523 | 46 | 328 | 0.0 | 0.0 | 0.00 | 0.04 | 0.00 | 63 | 1010.2 |
| 20260508005034 | 47 | 328 | 0.0 | 0.0 | 0.00 | 0.04 | 0.00 | 62 | 1010.2 |
| 20260508004524 | 47 | 328 | 0.0 | 0.0 | 0.00 | 0.04 | 0.00 | 61 | 1010.1 |
| 20260508004037 | 47 | 328 | 0.0 | 0.0 | 0.00 | 0.04 | 0.00 | 60 | 1010.1 |
| 20260508003539 | 47 | 328 | 0.0 | 4.0 | 0.00 | 0.04 | 0.00 | 60 | 1010.1 |
| 20260508003036 | 47 | 328 | 2.0 | 4.0 | 0.00 | 0.04 | 0.00 | 59 | 1010.1 |
| 20260508002539 | 47 | 328 | 3.0 | 4.0 | 0.00 | 0.04 | 0.00 | 59 | 1010.0 |
| 20260508002046 | 48 | 321 | 0.0 | 0.0 | 0.00 | 0.04 | 0.00 | 58 | 1010.0 |
| 20260508001520 | 48 | 321 | 0.0 | 0.0 | 0.00 | 0.04 | 0.00 | 58 | 1009.9 |
| 20260508001045 | 48 | 321 | 0.0 | 1.0 | 0.00 | 0.04 | 0.00 | 57 | 1009.8 |
| 20260508000522 | 48 | 320 | 0.0 | 4.0 | 0.00 | 0.04 | 0.00 | 58 | 1009.8 |
| 20260508000053 | 48 | 338 | 1.0 | 4.0 | 0.00 | 0.04 | 0.00 | 58 | 1009.8 |
| 20260507235524 | 49 | 355 | 1.0 | 4.0 | 0.00 | 0.05 | 0.00 | 57 | 1009.8 |
| 20260507235033 | 49 | 348 | 2.0 | 4.0 | 0.00 | 0.05 | 0.00 | 56 | 1009.8 |
| 20260507234521 | 49 | 346 | 0.0 | 4.0 | 0.00 | 0.05 | 0.00 | 57 | 1009.8 |
| 20260507234018 | 49 | 346 | 2.0 | 5.0 | 0.00 | 0.05 | 0.00 | 56 | 1009.9 |
| 20260507233526 | 49 | 334 | 3.0 | 5.0 | 0.00 | 0.05 | 0.00 | 56 | 1009.8 |
| 20260507233047 | 49 | 327 | 2.0 | 6.0 | 0.00 | 0.05 | 0.00 | 55 | 1009.8 |
| 20260507232537 | 49 | 323 | 3.0 | 7.0 | 0.00 | 0.05 | 0.00 | 55 | 1009.7 |
| 20260507232023 | 49 | 323 | 3.0 | 8.0 | 0.00 | 0.05 | 0.00 | 55 | 1009.8 |
| 20260507231540 | 50 | 321 | 3.0 | 8.0 | 0.00 | 0.05 | 0.00 | 55 | 1009.9 |
| 20260507231020 | 50 | 334 | 3.0 | 7.0 | 0.00 | 0.05 | 0.00 | 55 | 1009.8 |
| 20260507230553 | 50 | 339 | 4.0 | 6.0 | 0.00 | 0.05 | 0.00 | 54 | 1009.8 |
| 20260507230049 | 50 | 335 | 2.0 | 6.0 | 0.00 | 0.05 | 0.00 | 54 | 1009.8 |
| 20260507225519 | 50 | 317 | 4.0 | 8.0 | 0.00 | 0.05 | 0.00 | 53 | 1009.7 |
| 20260507225040 | 50 | 347 | 4.0 | 8.0 | 0.00 | 0.05 | 0.00 | 54 | 1009.7 |
| 20260507224551 | 50 | 298 | 4.0 | 9.0 | 0.00 | 0.05 | 0.00 | 52 | 1009.8 |
| 20260507224019 | 51 | 338 | 6.0 | 9.0 | 0.00 | 0.05 | 0.00 | 51 | 1009.8 |
| 20260507223538 | 51 | 332 | 3.0 | 7.0 | 0.00 | 0.05 | 0.00 | 53 | 1009.7 |
| 20260507223041 | 51 | 289 | 2.0 | 7.0 | 0.00 | 0.05 | 0.00 | 52 | 1009.6 |
| 20260507222530 | 51 | 327 | 2.0 | 6.0 | 0.00 | 0.05 | 0.00 | 54 | 1009.7 |
| 20260507222020 | 51 | 290 | 3.0 | 8.0 | 0.00 | 0.05 | 0.00 | 53 | 1009.7 |
| 20260507221518 | 51 | 341 | 5.0 | 8.0 | 0.00 | 0.05 | 0.00 | 51 | 1009.7 |
| 20260507221025 | 51 | 355 | 4.0 | 8.0 | 0.00 | 0.05 | 0.00 | 52 | 1009.7 |
| 20260507220518 | 51 | 318 | 2.0 | 12.0 | 0.00 | 0.05 | 0.00 | 52 | 1009.8 |
| 20260507220034 | 52 | 345 | 5.0 | 12.0 | 0.00 | 0.05 | 0.00 | 50 | 1009.8 |
| 20260507215526 | 52 | 336 | 7.0 | 13.0 | 0.00 | 0.05 | 0.00 | 52 | 1009.8 |
| 20260507215031 | 52 | 342 | 10.0 | 13.0 | 0.00 | 0.05 | 0.00 | 53 | 1009.7 |
| 20260507214550 | 52 | 355 | 5.0 | 10.0 | 0.00 | 0.05 | 0.00 | 54 | 1009.8 |
| 20260507214017 | 52 | 5 | 7.0 | 10.0 | 0.00 | 0.05 | 0.00 | 54 | 1009.7 |
| 20260507213544 | 52 | 323 | 5.0 | 10.0 | 0.00 | 0.05 | 0.00 | 55 | 1009.6 |
| 20260507213022 | 52 | 324 | 6.0 | 9.0 | 0.00 | 0.05 | 0.00 | 54 | 1009.7 |
| 20260507212551 | 52 | 340 | 6.0 | 10.0 | 0.00 | 0.05 | 0.00 | 56 | 1009.7 |
| 20260507212022 | 52 | 304 | 6.0 | 10.0 | 0.00 | 0.05 | 0.00 | 55 | 1009.7 |
| 20260507211517 | 52 | 321 | 6.0 | 11.0 | 0.00 | 0.05 | 0.00 | 55 | 1009.7 |
| 20260507211019 | 52 | 26 | 5.0 | 9.0 | 0.00 | 0.05 | 0.00 | 55 | 1009.7 |
| 20260507210542 | 52 | 5 | 6.0 | 11.0 | 0.00 | 0.05 | 0.00 | 55 | 1009.8 |
| 20260507210020 | 52 | 317 | 7.0 | 11.0 | 0.00 | 0.05 | 0.00 | 56 | 1009.7 |
| 20260507205522 | 52 | 346 | 6.0 | 10.0 | 0.00 | 0.05 | 0.00 | 56 | 1009.7 |
| 20260507205050 | 52 | 355 | 6.0 | 10.0 | 0.00 | 0.05 | 0.00 | 54 | 1009.7 |
| 20260507204534 | 52 | 313 | 2.0 | 7.0 | 0.00 | 0.05 | 0.00 | 57 | 1009.7 |
| 20260507204033 | 52 | 307 | 5.0 | 11.0 | 0.00 | 0.05 | 0.00 | 60 | 1009.7 |
| 20260507203538 | 53 | 344 | 7.0 | 11.0 | 0.00 | 0.05 | 0.00 | 56 | 1009.7 |
| 20260507203017 | 53 | 336 | 6.0 | 10.0 | 0.00 | 0.05 | 0.00 | 58 | 1009.7 |
| 20260507202545 | 53 | 5 | 7.0 | 12.0 | 0.00 | 0.05 | 0.00 | 59 | 1009.8 |
| 20260507202112 | 52 | 349 | 8.0 | 13.0 | 0.00 | 0.05 | 0.00 | 60 | 1009.7 |
| 20260507201518 | 52 | 11 | 7.0 | 13.0 | 0.00 | 0.05 | 0.00 | 61 | 1009.8 |
| 20260507201018 | 52 | 348 | 9.0 | 13.0 | 0.00 | 0.05 | 0.00 | 61 | 1009.9 |
| 20260507200528 | 52 | 348 | 6.0 | 11.0 | 0.00 | 0.05 | 0.00 | 59 | 1009.9 |
| 20260507200055 | 52 | 331 | 8.0 | 13.0 | 0.00 | 0.05 | 0.00 | 60 | 1009.8 |
| 20260507195524 | 52 | 22 | 8.0 | 13.0 | 0.00 | 0.05 | 0.00 | 60 | 1009.9 |
| 20260507195045 | 52 | 311 | 5.0 | 13.0 | 0.00 | 0.05 | 0.00 | 59 | 1009.9 |
| 20260507194519 | 52 | 346 | 8.0 | 13.0 | 0.00 | 0.05 | 0.00 | 62 | 1009.9 |
| 20260507194022 | 52 | 9 | 6.0 | 13.0 | 0.00 | 0.05 | 0.00 | 59 | 1009.8 |
| 20260507193520 | 53 | 347 | 9.0 | 13.0 | 0.00 | 0.05 | 0.00 | 59 | 1010.0 |
| 20260507193041 | 54 | 9 | 8.0 | 14.0 | 0.00 | 0.05 | 0.00 | 58 | 1010.0 |
| 20260507192528 | 54 | 298 | 8.0 | 14.0 | 0.00 | 0.05 | 0.00 | 60 | 1009.9 |
| 20260507192033 | 54 | 346 | 6.0 | 11.0 | 0.00 | 0.05 | 0.00 | 56 | 1009.9 |
| 20260507191600 | 55 | 302 | 4.0 | 9.0 | 0.00 | 0.05 | 0.00 | 58 | 1010.0 |
| 20260507191022 | 55 | 343 | 6.0 | 9.0 | 0.00 | 0.05 | 0.00 | 54 | 1010.0 |
| 20260507190528 | 55 | 303 | 3.0 | 7.0 | 0.00 | 0.05 | 0.00 | 57 | 1010.0 |
| 20260507190033 | 55 | 310 | 3.0 | 8.0 | 0.00 | 0.05 | 0.00 | 57 | 1010.1 |
| 20260507185524 | 55 | 261 | 3.0 | 8.0 | 0.00 | 0.05 | 0.00 | 57 | 1010.1 |
| 20260507185050 | 54 | 302 | 4.0 | 8.0 | 0.00 | 0.05 | 0.00 | 54 | 1010.1 |
| 20260507184529 | 55 | 329 | 3.0 | 8.0 | 0.00 | 0.05 | 0.00 | 54 | 1010.1 |
| 20260507184041 | 55 | 298 | 2.0 | 6.0 | 0.00 | 0.05 | 0.00 | 55 | 1010.2 |
| 20260507183519 | 54 | 263 | 3.0 | 8.0 | 0.00 | 0.05 | 0.00 | 53 | 1010.2 |
| 20260507183034 | 54 | 335 | 3.0 | 9.0 | 0.00 | 0.05 | 0.00 | 55 | 1010.2 |
| 20260507182519 | 54 | 310 | 5.0 | 10.0 | 0.00 | 0.05 | 0.00 | 58 | 1010.4 |
| 20260507182036 | 54 | 323 | 5.0 | 11.0 | 0.00 | 0.05 | 0.00 | 56 | 1010.4 |
| 20260507181524 | 54 | 331 | 7.0 | 11.0 | 0.00 | 0.05 | 0.00 | 53 | 1010.3 |
| 20260507181031 | 54 | 334 | 1.0 | 6.0 | 0.00 | 0.05 | 0.00 | 54 | 1010.3 |
| 20260507180541 | 54 | 264 | 3.0 | 13.0 | 0.00 | 0.05 | 0.00 | 53 | 1010.4 |
| 20260507180030 | 54 | 304 | 5.0 | 13.0 | 0.00 | 0.05 | 0.00 | 52 | 1010.4 |
| 20260507175519 | 54 | 283 | 5.0 | 11.0 | 0.00 | 0.05 | 0.00 | 51 | 1010.4 |
| 20260507175038 | 55 | 344 | 5.0 | 12.0 | 0.00 | 0.05 | 0.00 | 53 | 1010.5 |
| 20260507174517 | 55 | 257 | 4.0 | 12.0 | 0.00 | 0.05 | 0.00 | 54 | 1010.5 |
| 20260507174041 | 55 | 280 | 2.0 | 7.0 | 0.00 | 0.05 | 0.00 | 50 | 1010.5 |
| 20260507173546 | 56 | 186 | 2.0 | 7.0 | 0.00 | 0.05 | 0.00 | 48 | 1010.5 |
| 20260507173022 | 55 | 286 | 4.0 | 10.0 | 0.00 | 0.05 | 0.00 | 52 | 1010.5 |
| 20260507172531 | 55 | 251 | 4.0 | 9.0 | 0.00 | 0.05 | 0.00 | 51 | 1010.6 |
| 20260507172027 | 55 | 230 | 5.0 | 9.0 | 0.00 | 0.05 | 0.00 | 52 | 1010.6 |
| 20260507171533 | 55 | 266 | 3.0 | 10.0 | 0.00 | 0.05 | 0.00 | 53 | 1010.7 |
| 20260507171041 | 55 | 263 | 3.0 | 10.0 | 0.00 | 0.05 | 0.00 | 57 | 1010.8 |
| 20260507170526 | 54 | 301 | 6.0 | 13.0 | 0.00 | 0.05 | 0.00 | 54 | 1010.9 |
| 20260507170044 | 54 | 308 | 6.0 | 13.0 | 0.00 | 0.05 | 0.00 | 57 | 1010.9 |
| 20260507165550 | 54 | 273 | 4.0 | 11.0 | 0.00 | 0.05 | 0.00 | 53 | 1010.9 |
| 20260507165017 | 54 | 338 | 6.0 | 10.0 | 0.00 | 0.05 | 0.00 | 55 | 1010.9 |
| 20260507164524 | 54 | 277 | 6.0 | 10.0 | 0.00 | 0.05 | 0.00 | 53 | 1010.9 |
| 20260507164037 | 54 | 248 | 4.0 | 9.0 | 0.00 | 0.05 | 0.00 | 56 | 1011.1 |
| 20260507163542 | 54 | 284 | 3.0 | 8.0 | 0.00 | 0.05 | 0.00 | 55 | 1011.1 |
| 20260507163031 | 54 | 251 | 3.0 | 10.0 | 0.00 | 0.05 | 0.00 | 58 | 1011.2 |
| 20260507162519 | 54 | 255 | 5.0 | 10.0 | 0.00 | 0.05 | 0.00 | 58 | 1011.2 |
| 20260507162022 | 54 | 262 | 3.0 | 10.0 | 0.00 | 0.05 | 0.00 | 62 | 1011.3 |
| 20260507161542 | 53 | 280 | 4.0 | 10.0 | 0.00 | 0.05 | 0.00 | 57 | 1011.3 |
| 20260507161028 | 53 | 239 | 2.0 | 11.0 | 0.00 | 0.05 | 0.00 | 59 | 1011.4 |
| 20260507160543 | 52 | 269 | 5.0 | 11.0 | 0.00 | 0.05 | 0.00 | 60 | 1011.4 |
| 20260507160045 | 52 | 308 | 4.0 | 11.0 | 0.00 | 0.05 | 0.00 | 65 | 1011.4 |
| 20260507155532 | 51 | 16 | 2.0 | 6.0 | 0.00 | 0.05 | 0.00 | 62 | 1011.6 |
| 20260507155044 | 51 | 335 | 3.0 | 8.0 | 0.00 | 0.05 | 0.00 | 63 | 1011.6 |
| 20260507154529 | 51 | 360 | 5.0 | 8.0 | 0.00 | 0.05 | 0.00 | 63 | 1011.6 |
| 20260507154029 | 51 | 325 | 0.0 | 6.0 | 0.00 | 0.05 | 0.00 | 61 | 1011.7 |
| 20260507153532 | 51 | 355 | 3.0 | 6.0 | 0.00 | 0.05 | 0.00 | 64 | 1011.9 |
| 20260507153117 | 52 | 360 | 0.0 | 6.0 | 0.00 | 0.05 | 0.00 | 61 | 1011.9 |
| 20260507152606 | 52 | 292 | 0.0 | 2.0 | 0.00 | 0.05 | 0.00 | 64 | 1012.0 |
| 20260507152031 | 52 | 159 | 0.0 | 4.0 | 0.00 | 0.05 | 0.00 | 62 | 1012.0 |
| 20260507151533 | 52 | 175 | 2.0 | 5.0 | 0.00 | 0.05 | 0.00 | 61 | 1012.0 |
| 20260507151059 | 51 | 196 | 1.0 | 5.0 | 0.00 | 0.05 | 0.00 | 61 | 1012.0 |
| 20260507150033 | 51 | 219 | 2.0 | 6.0 | 0.00 | 0.05 | 0.00 | 62 | 1012.1 |
| 20260507145529 | 51 | 92 | 2.0 | 7.0 | 0.00 | 0.06 | 0.00 | 63 | 1012.0 |
| 20260507145038 | 51 | 341 | 2.0 | 7.0 | 0.00 | 0.06 | 0.00 | 65 | 1012.1 |
| 20260507144720 | 51 | 267 | 2.0 | 3.0 | 0.00 | 0.06 | 0.00 | 66 | 1012.1 |
| 20260507143049 | 49 | 345 | 1.0 | 4.0 | 0.00 | 0.06 | 0.00 | 68 | 1012.3 |
| 20260507142621 | 49 | 350 | 1.0 | 4.0 | 0.00 | 0.06 | 0.00 | 68 | 1012.3 |
| 20260507142549 | 49 | 350 | 1.0 | 4.0 | 0.00 | 0.06 | 0.00 | 68 | 1012.3 |
| 20260507142023 | 48 | 344 | 0.0 | 6.0 | 0.00 | 0.06 | 0.00 | 68 | 1012.3 |
| 20260507141552 | 47 | 340 | 0.0 | 6.0 | 0.00 | 0.06 | 0.00 | 69 | 1012.4 |
| 20260507141040 | 47 | 334 | 1.0 | 5.0 | 0.00 | 0.06 | 0.00 | 70 | 1012.4 |
| 20260507140543 | 46 | 327 | 0.0 | 5.0 | 0.00 | 0.06 | 0.00 | 71 | 1012.4 |
| 20260507140048 | 45 | 343 | 1.0 | 3.0 | 0.00 | 0.06 | 0.00 | 71 | 1012.5 |
| 20260507135536 | 45 | 342 | 1.0 | 4.0 | 0.00 | 0.07 | 0.00 | 73 | 1012.6 |
| 20260507135031 | 45 | 344 | 1.0 | 4.0 | 0.00 | 0.07 | 0.00 | 73 | 1012.6 |
| 20260507134546 | 44 | 355 | 1.0 | 5.0 | 0.00 | 0.07 | 0.00 | 73 | 1012.7 |
| 20260507134037 | 44 | 342 | 2.0 | 6.0 | 0.00 | 0.07 | 0.00 | 72 | 1012.8 |
| 20260507133534 | 44 | 350 | 3.0 | 6.0 | 0.00 | 0.07 | 0.00 | 71 | 1012.8 |
| 20260507133037 | 45 | 316 | 3.0 | 9.0 | 0.00 | 0.07 | 0.00 | 70 | 1012.9 |
| 20260507132525 | 45 | 318 | 3.0 | 9.0 | 0.00 | 0.07 | 0.00 | 69 | 1012.8 |
| 20260507132029 | 45 | 317 | 2.0 | 6.0 | 0.00 | 0.07 | 0.00 | 70 | 1012.8 |
| 20260507131543 | 45 | 274 | 3.0 | 6.0 | 0.00 | 0.07 | 0.00 | 69 | 1012.7 |
| 20260507131023 | 45 | 343 | 2.0 | 6.0 | 0.00 | 0.07 | 0.00 | 69 | 1012.7 |
| 20260507130543 | 45 | 263 | 2.0 | 6.0 | 0.00 | 0.07 | 0.00 | 71 | 1012.7 |
| 20260507130037 | 44 | 323 | 2.0 | 12.0 | 0.00 | 0.07 | 0.00 | 72 | 1012.7 |
| 20260507125540 | 44 | 341 | 6.0 | 12.0 | 0.00 | 0.09 | 0.00 | 75 | 1012.6 |
| 20260507125019 | 44 | 347 | 2.0 | 4.0 | 0.00 | 0.09 | 0.00 | 80 | 1012.7 |
| 20260507124529 | 44 | 329 | 2.0 | 5.0 | 0.00 | 0.09 | 0.00 | 82 | 1012.7 |
| 20260507124053 | 44 | 310 | 1.0 | 2.0 | 0.00 | 0.09 | 0.00 | 85 | 1012.7 |
| 20260507123524 | 43 | 286 | 0.0 | 2.0 | 0.00 | 0.09 | 0.00 | 88 | 1012.5 |
| 20260507123031 | 43 | 277 | 0.0 | 3.0 | 0.00 | 0.09 | 0.00 | 89 | 1012.6 |
| 20260507122544 | 43 | 277 | 1.0 | 3.0 | 0.00 | 0.09 | 0.00 | 90 | 1012.6 |
| 20260507122111 | 43 | 277 | 0.0 | 4.0 | 0.00 | 0.09 | 0.00 | 90 | 1012.7 |
| 20260507121027 | 43 | 287 | 1.0 | 4.0 | 0.00 | 0.09 | 0.00 | 93 | 1012.7 |
| 20260507120531 | 42 | 103 | 0.0 | 3.0 | 0.00 | 0.09 | 0.00 | 93 | 1012.4 |
| 20260507120033 | 42 | 103 | 2.0 | 3.0 | 0.00 | 0.09 | 0.00 | 93 | 1012.2 |
| 20260507115524 | 42 | 103 | 0.0 | 0.0 | 0.00 | 0.10 | 0.00 | 94 | 1012.3 |
| 20260507115028 | 41 | 98 | 0.0 | 0.0 | 0.00 | 0.10 | 0.00 | 93 | 1012.3 |
| 20260507114601 | 40 | 97 | 0.0 | 0.0 | 0.00 | 0.10 | 0.00 | 93 | 1012.4 |
| 20260507114045 | 39 | 119 | 0.0 | 0.0 | 0.00 | 0.10 | 0.00 | 93 | 1012.4 |
| 20260507113533 | 38 | 119 | 0.0 | 0.0 | 0.00 | 0.10 | 0.00 | 93 | 1012.5 |
| 20260507113016 | 38 | 119 | 0.0 | 0.0 | 0.00 | 0.10 | 0.00 | 92 | 1012.5 |
| 20260507112546 | 37 | 119 | 0.0 | 0.0 | 0.00 | 0.10 | 0.00 | 92 | 1012.6 |
| 20260507112024 | 37 | 112 | 0.0 | 0.0 | 0.00 | 0.10 | 0.00 | 92 | 1012.6 |
| 20260507111545 | 37 | 115 | 0.0 | 0.0 | 0.00 | 0.10 | 0.00 | 92 | 1012.5 |
| 20260507111042 | 37 | 115 | 0.0 | 0.0 | 0.00 | 0.10 | 0.00 | 91 | 1012.3 |
| 20260507110525 | 37 | 174 | 0.0 | 1.0 | 0.00 | 0.10 | 0.00 | 91 | 1012.2 |
| 20260507110032 | 36 | 218 | 0.0 | 1.0 | 0.00 | 0.10 | 0.00 | 91 | 1012.0 |
| 20260507105521 | 36 | 223 | 0.0 | 0.0 | 0.00 | 0.15 | 0.00 | 91 | 1012.2 |
| 20260507105035 | 36 | 223 | 0.0 | 0.0 | 0.00 | 0.15 | 0.00 | 91 | 1012.1 |
| 20260507104542 | 36 | 223 | 0.0 | 0.0 | 0.00 | 0.15 | 0.00 | 91 | 1012.0 |
| 20260507104029 | 36 | 221 | 0.0 | 0.0 | 0.00 | 0.15 | 0.00 | 91 | 1011.8 |
| 20260507103530 | 36 | 221 | 0.0 | 0.0 | 0.00 | 0.15 | 0.00 | 90 | 1011.8 |
| 20260507103037 | 36 | 219 | 0.0 | 0.0 | 0.00 | 0.15 | 0.00 | 90 | 1011.9 |
| 20260507102537 | 36 | 223 | 0.0 | 0.0 | 0.00 | 0.15 | 0.00 | 90 | 1012.0 |
| 20260507102040 | 36 | 223 | 0.0 | 0.0 | 0.00 | 0.15 | 0.00 | 90 | 1011.9 |
| 20260507101525 | 36 | 223 | 0.0 | 0.0 | 0.00 | 0.15 | 0.00 | 90 | 1012.1 |
| 20260507101031 | 36 | 223 | 0.0 | 0.0 | 0.00 | 0.15 | 0.00 | 90 | 1012.0 |
| 20260507100536 | 36 | 223 | 0.0 | 0.0 | 0.00 | 0.15 | 0.00 | 89 | 1012.0 |
| 20260507100031 | 36 | 258 | 0.0 | 0.0 | 0.00 | 0.15 | 0.00 | 89 | 1012.1 |
| 20260507095534 | 36 | 258 | 0.0 | 0.0 | 0.00 | 0.20 | 0.00 | 90 | 1011.9 |
| 20260507095107 | 36 | 258 | 0.0 | 0.0 | 0.00 | 0.20 | 0.00 | 89 | 1011.9 |
| 20260507094517 | 36 | 258 | 0.0 | 0.0 | 0.00 | 0.20 | 0.00 | 89 | 1011.9 |
| 20260507094018 | 37 | 258 | 0.0 | 0.0 | 0.00 | 0.20 | 0.00 | 89 | 1012.0 |
| 20260507093527 | 37 | 258 | 0.0 | 0.0 | 0.00 | 0.20 | 0.00 | 89 | 1011.8 |
| 20260507093015 | 37 | 258 | 0.0 | 0.0 | 0.00 | 0.20 | 0.00 | 89 | 1011.6 |
| 20260507092527 | 37 | 258 | 0.0 | 0.0 | 0.00 | 0.20 | 0.00 | 89 | 1011.7 |
| 20260507092034 | 37 | 258 | 0.0 | 0.0 | 0.00 | 0.20 | 0.00 | 89 | 1011.9 |
| 20260507091524 | 37 | 258 | 0.0 | 0.0 | 0.00 | 0.20 | 0.00 | 89 | 1012.0 |
| 20260507091018 | 37 | 258 | 0.0 | 0.0 | 0.00 | 0.20 | 0.00 | 89 | 1012.0 |
| 20260507090536 | 37 | 258 | 0.0 | 0.0 | 0.00 | 0.20 | 0.00 | 88 | 1012.0 |
| 20260507090038 | 37 | 258 | 0.0 | 0.0 | 0.00 | 0.20 | 0.00 | 88 | 1011.9 |
| 20260507085537 | 38 | 258 | 0.0 | 0.0 | 0.00 | 0.28 | 0.00 | 88 | 1012.0 |
| 20260507085051 | 38 | 258 | 0.0 | 0.0 | 0.00 | 0.28 | 0.00 | 88 | 1012.0 |
| 20260507084543 | 38 | 258 | 0.0 | 0.0 | 0.00 | 0.28 | 0.00 | 88 | 1012.0 |
| 20260507084050 | 38 | 258 | 0.0 | 0.0 | 0.00 | 0.28 | 0.00 | 88 | 1012.0 |
| 20260507083534 | 38 | 258 | 0.0 | 0.0 | 0.00 | 0.28 | 0.00 | 88 | 1012.0 |
| 20260507083029 | 39 | 258 | 0.0 | 0.0 | 0.00 | 0.28 | 0.00 | 88 | 1011.9 |
| 20260507082535 | 39 | 258 | 0.0 | 0.0 | 0.00 | 0.28 | 0.00 | 87 | 1011.9 |
| 20260507082018 | 39 | 258 | 0.0 | 0.0 | 0.00 | 0.28 | 0.00 | 87 | 1011.7 |
| 20260507081548 | 39 | 258 | 0.0 | 0.0 | 0.00 | 0.28 | 0.00 | 87 | 1011.9 |
| 20260507081038 | 39 | 269 | 0.0 | 0.0 | 0.00 | 0.28 | 0.00 | 87 | 1012.0 |
| 20260507080528 | 40 | 269 | 0.0 | 0.0 | 0.00 | 0.28 | 0.00 | 87 | 1012.0 |
| 20260507080023 | 40 | 269 | 0.0 | 0.0 | 0.00 | 0.28 | 0.00 | 87 | 1012.0 |
| 20260507075528 | 40 | 269 | 0.0 | 0.0 | 0.00 | 0.37 | 0.00 | 87 | 1012.0 |
| 20260507075038 | 40 | 269 | 0.0 | 0.0 | 0.00 | 0.37 | 0.00 | 87 | 1012.0 |
| 20260507074529 | 40 | 269 | 0.0 | 0.0 | 0.00 | 0.37 | 0.00 | 87 | 1012.1 |
| 20260507074042 | 40 | 269 | 0.0 | 0.0 | 0.00 | 0.37 | 0.00 | 87 | 1012.2 |
| 20260507073533 | 41 | 269 | 0.0 | 0.0 | 0.00 | 0.37 | 0.00 | 87 | 1012.2 |
| 20260507073024 | 41 | 269 | 0.0 | 0.0 | 0.00 | 0.37 | 0.00 | 87 | 1012.3 |
| 20260507072537 | 41 | 269 | 0.0 | 0.0 | 0.00 | 0.37 | 0.00 | 87 | 1012.2 |
| 20260507072030 | 41 | 269 | 0.0 | 0.0 | 0.00 | 0.37 | 0.00 | 87 | 1012.2 |
| 20260507071549 | 41 | 269 | 0.0 | 0.0 | 0.00 | 0.37 | 0.00 | 88 | 1012.1 |
| 20260507071025 | 41 | 269 | 0.0 | 0.0 | 0.00 | 0.37 | 0.00 | 88 | 1012.1 |
| 20260507070538 | 42 | 269 | 0.0 | 0.0 | 0.00 | 0.37 | 0.00 | 88 | 1012.1 |
| 20260507070027 | 42 | 269 | 0.0 | 0.0 | 0.00 | 0.37 | 0.00 | 88 | 1012.0 |
| 20260507065543 | 42 | 269 | 0.0 | 0.0 | 0.00 | 0.49 | 0.00 | 88 | 1012.0 |
| 20260507065025 | 42 | 269 | 0.0 | 0.0 | 0.00 | 0.49 | 0.00 | 88 | 1012.0 |
| 20260507064518 | 42 | 269 | 0.0 | 0.0 | 0.00 | 0.49 | 0.00 | 88 | 1012.0 |
| 20260507064029 | 42 | 269 | 0.0 | 0.0 | 0.00 | 0.49 | 0.00 | 89 | 1012.0 |
| 20260507063521 | 42 | 269 | 0.0 | 0.0 | 0.00 | 0.49 | 0.00 | 89 | 1011.9 |
| 20260507063031 | 42 | 269 | 0.0 | 0.0 | 0.00 | 0.49 | 0.00 | 89 | 1011.8 |
| 20260507062521 | 42 | 269 | 0.0 | 0.0 | 0.00 | 0.49 | 0.00 | 89 | 1011.7 |
| 20260507062032 | 42 | 269 | 0.0 | 0.0 | 0.00 | 0.49 | 0.00 | 89 | 1011.9 |
| 20260507061524 | 42 | 269 | 0.0 | 0.0 | 0.00 | 0.49 | 0.00 | 90 | 1011.9 |
| 20260507061036 | 43 | 269 | 0.0 | 0.0 | 0.00 | 0.49 | 0.00 | 90 | 1012.1 |
| 20260507060536 | 43 | 269 | 0.0 | 0.0 | 0.00 | 0.49 | 0.00 | 90 | 1012.2 |
| 20260507060022 | 42 | 269 | 0.0 | 0.0 | 0.00 | 0.49 | 0.00 | 90 | 1012.3 |
| 20260507055541 | 42 | 269 | 0.0 | 0.0 | 0.00 | 0.55 | 0.00 | 90 | 1012.3 |
| 20260507055056 | 42 | 269 | 0.0 | 2.0 | 0.00 | 0.55 | 0.00 | 90 | 1012.3 |
| 20260507054524 | 43 | 269 | 0.0 | 2.0 | 0.00 | 0.55 | 0.00 | 91 | 1012.3 |
| 20260507054043 | 43 | 267 | 0.0 | 3.0 | 0.00 | 0.55 | 0.00 | 91 | 1012.4 |
| 20260507053522 | 43 | 286 | 0.0 | 4.0 | 0.00 | 0.55 | 0.00 | 91 | 1012.4 |
| 20260507053050 | 43 | 290 | 2.0 | 4.0 | 0.00 | 0.55 | 0.00 | 91 | 1012.4 |
| 20260507052526 | 43 | 280 | 1.0 | 6.0 | 0.00 | 0.55 | 0.00 | 91 | 1012.5 |
| 20260507052052 | 43 | 274 | 2.0 | 6.0 | 0.00 | 0.55 | 0.00 | 91 | 1012.5 |
| 20260507051523 | 43 | 261 | 0.0 | 4.0 | 0.00 | 0.55 | 0.00 | 92 | 1012.5 |
| 20260507051046 | 43 | 284 | 0.0 | 3.0 | 0.00 | 0.55 | 0.00 | 92 | 1012.5 |
| 20260507050516 | 43 | 283 | 0.0 | 3.0 | 0.00 | 0.55 | 0.00 | 92 | 1012.6 |
| 20260507050048 | 43 | 269 | 0.0 | 0.0 | 0.00 | 0.55 | 0.00 | 92 | 1012.6 |
| 20260507045523 | 43 | 273 | 0.0 | 4.0 | 0.00 | 0.65 | 0.00 | 92 | 1012.6 |
| 20260507045050 | 43 | 277 | 2.0 | 4.0 | 0.00 | 0.65 | 0.00 | 92 | 1012.6 |
| 20260507044522 | 43 | 265 | 0.0 | 3.0 | 0.00 | 0.65 | 0.00 | 92 | 1012.5 |
| 20260507044049 | 43 | 275 | 0.0 | 4.0 | 0.00 | 0.65 | 0.00 | 92 | 1012.5 |
| 20260507043543 | 43 | 272 | 2.0 | 4.0 | 0.00 | 0.65 | 0.00 | 92 | 1012.5 |
| 20260507043023 | 43 | 287 | 1.0 | 4.0 | 0.00 | 0.65 | 0.00 | 92 | 1012.4 |
| 20260507042544 | 43 | 265 | 2.0 | 4.0 | 0.00 | 0.65 | 0.00 | 92 | 1012.3 |
| 20260507042026 | 43 | 261 | 1.0 | 4.0 | 0.00 | 0.65 | 0.00 | 92 | 1012.4 |
| 20260507041516 | 43 | 258 | 1.0 | 4.0 | 0.00 | 0.65 | 0.00 | 92 | 1012.4 |
| 20260507041032 | 43 | 254 | 0.0 | 4.0 | 0.00 | 0.65 | 0.00 | 92 | 1012.4 |
| 20260507040525 | 43 | 276 | 0.0 | 5.0 | 0.00 | 0.65 | 0.00 | 92 | 1012.4 |
| 20260507040036 | 43 | 269 | 0.0 | 5.0 | 0.00 | 0.65 | 0.00 | 92 | 1012.3 |
| 20260507035526 | 43 | 267 | 0.0 | 4.0 | 0.00 | 0.73 | 0.65 | 92 | 1012.3 |
| 20260507035038 | 43 | 267 | 2.0 | 4.0 | 0.00 | 0.73 | 0.65 | 92 | 1012.2 |
| 20260507034532 | 43 | 279 | 2.0 | 5.0 | 0.00 | 0.73 | 0.65 | 92 | 1012.3 |
| 20260507034035 | 43 | 257 | 2.0 | 6.0 | 0.00 | 0.73 | 0.65 | 92 | 1012.2 |